Regional Weather Roundup
Issued by NWS

Home | Current Version | Previous Version | Text Only | Print | Product List | Glossary On
Versions: 1 2 3 4 5 6 7 8 9 10 11 12 13 14 15 16 17 18 19 20 21 22 23 24 25 26 27 28 29 30 31 32 33 34 35 36 37 38 39 40 41 42 43 44 45 46 47 48 49 50
000
ASUS43 KDTX 290701
RWRMI
MICHIGAN HOURLY REGIONAL WEATHER ROUNDUP
NATIONAL WEATHER SERVICE DETROIT/PONTIAC MI
300 AM EDT FRI JUL 29 2016

NOTE: "FAIR" INDICATES FEW OR NO CLOUDS BELOW 12,000 FEET WITH NO
SIGNIFICANT WEATHER AND/OR OBSTRUCTION TO VISIBILITY.

MIZ047>049-052>055-059>063-066>070-074>076-081>083-290800-
SOUTHEAST LOWER MICHIGAN

CITY           SKY/WX    TMP DP  RH WIND       PRES   REMARKS
ADRIAN         CLOUDY    68  64  87 E5        29.94F
ALMA           CLOUDY    69  67  96 N3        29.98S
ANN ARBOR      CLEAR     68  59  73 N6        29.93F
BAD AXE        PTCLDY    66  62  85 NE5       29.98S
CARO           CLOUDY    66  63  89 CALM      29.97R
DETROIT CITY   PTCLDY    70  63  78 N6        29.93S
DETROIT        CLOUDY    71  56  58 NE5       29.93F
FLINT          CLOUDY    71  61  70 N6        29.96S
GROSSE ILE     CLEAR     71  59  65 N3        29.92F
HILLSDALE      PTCLDY    67  63  86 E3        29.94F
HOWELL         CLOUDY    68  61  77 N3        29.96R

CITY           SKY/WX    TMP DP  RH WIND       PRES   REMARKS
JACKSON        PTCLDY    67  65  93 E5        29.95S
LAMBERTVILLE   CLOUDY    70  62  75 CALM      29.93F
LANSING        CLOUDY    66  61  84 NE7       29.95F
LAPEER         CLOUDY    66  62  88 CALM      29.97S
MASON          CLEAR     65  62  90 NW3       29.95F
MONROE         PTCLDY    67  63  86 N10       29.92F
MT. CLEMENS    MOCLDY    66  64  94 N5        29.91F
PONTIAC        CLOUDY    69  61  75 N7        29.94F
PORT HOPE        N/A     72  64  76 NE17      29.96S
TRI CITIES     CLOUDY    70  66  87 N6        29.98S
MIDLAND        LGT RAIN  66  60  80 N3        29.98R
TROY           CLOUDY    71  60  67 N3        29.96S
SAGINAW HB     CLOUDY    68  63  83 NE5       29.96S
$$
MIZ043>046-050>051-056>058-064>065-071>073-077>080-290800-
SOUTHWEST LOWER MICHIGAN

CITY           SKY/WX    TMP DP  RH WIND       PRES   REMARKS
BATTLE CREEK   CLOUDY    68  66  93 E8        29.94F
BENTON HARBOR  CLOUDY    68  64  87 E3        29.92R
BIG RAPIDS     CLOUDY    65  64  94 E5        29.99R
COLDWATER      CLOUDY    70  65  82 NE3       29.94R
FREMONT        CLOUDY    67  67 100 E9        29.96S
HOLLAND        MOCLDY    69  63  81 CALM      29.95R
GRAND RAPIDS   PTCLDY    68  61  78 NE8       29.95S
IONIA          FAIR      67  60  78 NE10      29.95S
KALAMAZOO      CLOUDY    69  65  86 E3        29.93S
LUDINGTON      RAIN      66  65  97 NE3       29.98R
MARSHALL       PTCLDY    69  66  92 NE3       29.94S
MOUNT PLEASANT CLOUDY    67  61  79 N5        29.98S
MUSKEGON       LGT RAIN  68  65  90 NE9       29.96R
SOUTH HAVEN    MOCLDY    67  67  97 CALM      29.93R
$$
MIZ016>042-290800-
NORTHERN LOWER MICHIGAN

CITY           SKY/WX    TMP DP  RH WIND       PRES   REMARKS
ALPENA         CLOUDY    66  57  72 E5        30.03R
BEAVER ISLAND  PTCLDY    61  58  90 NE5       30.03S
BELLAIRE       CLOUDY    61  56  84 CALM      30.01S
CADILLAC       HVY RAIN  62  59  90 NE5       30.03S
CHARLEVOIX     MOCLDY    65  56  72 E3        30.05R
FRANKFORT      RAIN      66  62  86 CALM      30.01R
GAYLORD        PTCLDY    63  53  70 NE6       30.03R
GRAYLING       CLOUDY    64  56  75 E5        30.02S
HARBOR SPRINGS PTCLDY    63  56  80 NE6       30.02S
HOUGHTON LAKE  CLOUDY    64  58  80 NE3       30.02R
MANISTEE       RAIN      65  63  93 E12       29.99S
OSCODA         CLOUDY    64  57  79 NW5       29.99S
PELLSTON       PTCLDY    55  52  89 CALM      30.03S
ROGERS CITY    CLOUDY    67  58  70 E8        30.04R
TRAVERSE CITY  CLOUDY    67  63  87 CALM      30.00R
$$
MIZ007>008-015-290800-
EASTERN UPPER MICHIGAN

CITY           SKY/WX    TMP DP  RH WIND       PRES   REMARKS
KINROSS        PTCLDY    62  54  74 NE10      30.05S
MACKINAC ISLAN PTCLDY    63  56  78 NE12      30.04S
S. S. MARIE    PTCLDY    63  53  70 VRB3      30.05R
$$
MIZ004>006-011>014-085-290800-
CENTRAL UPPER MICHIGAN

CITY           SKY/WX    TMP DP  RH WIND       PRES   REMARKS
ESCANABA       CLEAR     57  54  88 N5        30.03S
MENOMINEE      CLOUDY   N/A N/A N/A N6        30.05R
SAWYER-GWINN   CLOUDY    54  52  93 N7        30.08S
$$
MIZ001>003-009>011-084-290800-
WESTERN UPPER MICHIGAN

CITY           SKY/WX    TMP DP  RH WIND       PRES   REMARKS
IRON MOUNTAIN  PTCLDY    53  49  86 N3        30.06S
HOUGHTON       CLEAR     57  52  83 N8        30.08S
COPPER HARBOR    N/A     56  54  93 W3        30.08S
IRONWOOD       CLEAR     45  45 100 CALM      30.09S
$$

ABBREVIATIONS USED IN REMARKS
   TC - TEMPERATURE IN CELSIUS
  WCI - WIND CHILL INDEX
   HX - HEAT INDEX
  VSB - VISIBILITY





USA.gov is the U.S. government's official web portal to all federal, state and local government web resources and services.